Location: Unspecified
(0.0000°N, 0.0000°E)
Time: 17:53:54
(UTC+00:00)

STARLINK 1046 - Pass Details

Date: 22 January 2020
Orbit: 548 x 551 km, 53.0° (Epoch: 17 January)

Event Time Altitude Azimuth Distance (km) Brightness Sun altitude
Rises 04:15:30 0° 197° (SSW) 2,713 7.2 -27.1°
Reaches altitude 10° 04:17:57 10° 185° (S) 1,817 6.4 -26.5°
Maximum altitude 04:21:33 29° 124° (SE) 1,020 5.6 -25.7°
Drops below altitude 10° 04:25:08 10° 63° (ENE) 1,810 6.8 -24.9°
Sets 04:27:34 0° 52° (NE) 2,700 7.5 -24.3°
